User: anonymous   Login
Location: Newark
(25.0000°N, 73.5000°E)
Time: 12:41:26
(UTC+00:00)
Language:

Transit 2A Rocket - Orbit

View from above orbital plane
View from above orbital plane
View from above satellite
View from above satellite

Ground track
Ground track

The orbit data is extracted from the following two-line orbital elements,

1 00047U 60007C   21128.89430829 -.00000012  00000-0  22317-4 0  9994
2 00047  66.6676   4.7900 0220716  64.2887 298.0824 14.42149392181601
Epoch (UTC): 08 May 2021 21:27:48
Eccentricity: 0.0220716
inclination: 66.6676°
perigee height: 594 km
apogee height: 909 km
right ascension of ascending node: 4.7900°
argument of perigee: 64.2887°
revolutions per day: 14.42149392
mean anomaly at epoch: 298.0824°
orbit number at epoch: 18160

The dashed part of the orbit path shows where the satellite is in the earth's shadow,  

DLR